Weather in Oktyabrsky

Russia / Perm Krai     56°30′54″N   57°12′17″E
temp.,
°C
wind,
m/s
gust,
m/s
humid.,
%
clouds,
%
prec.,
mm/h
press.,
hPa
HPBL,
m
7 march, sun
sun723:00−15wsw2399100 0.3 101279
02:00−17ssw2298100 0.1 101245
05:00−17s229898 0.1 101276
08:00−19ssw239990 0.1 101146
11:00−14wsw239295 0.1 1010312
14:00−11w3485100 0.1 1009792
17:00−11w3485100 0.3 1008757
20:00−15wsw2598100 0.1 1009121
8 march, mon
mon823:00−18sw23100100 0.1 101073
02:00−19ssw37100100 0.1 1009136
05:00−18s3898100 0.1 1008202
08:00−15sse41194100 0.1 1004396
11:00−11s51192100 0.9 1001776
14:00−8s61290100 0.7 999959
17:00−5s61393100 1.4 9971018
20:00−8sw5139299 0.6 997920
9 march, tue
tue923:00−8sw8159399 1.9 9991213
02:00−10sw71492100 0.9 1002772
05:00−11sw51295100 1.1 1003440
08:00−15ssw2699100 0.1 1003130
11:00−9sse2393100 0.1 1002259
14:00−6nne1295100 2.3 1002311
17:00−7wnw4789100 4.4 1004800
20:00−11w2797100 0.1 1007209
10 march, wed
wed1023:00−14wsw1298100 0.3 100920
02:00−16nnw119895 0.1 100820
05:00−18nne249897 0.2 1009116
08:00−23nne2399100 0.1 100982
11:00−19n359575 0.1 1009246
14:00−17nnw469154 0.0 1010356
17:00−18nnw478939 0.0 1011385
20:00−23nnw310951 0.0 1013243
11 march, thu
thu1123:00−27nnw23980 0.0 101540
02:00−28wnw2210033 0.0 101520
05:00−28wsw2310021 0.0 101763
08:00−27sw4910087 0.0 1017203
11:00−23sw5109894 0.1 1016333
14:00−20wsw51096100 0.1 1016439
17:00−19wsw51094100 0.4 1016578
20:00−20wsw51196100 0.2 1018482